"datetime","temp","dp","rain_mm","uv","solar","mb","wind_mph","gust_mph","windchill","rh"
"2014-01-09 00:00:00",10.8,10.6,0.0,0.0,0,1005.1,3,8,"",99
"2014-01-09 00:01:00",10.8,10.6,0.0,0.0,0,1005.1,6,8,"",99
"2014-01-09 00:02:00",10.8,10.6,0.0,0.0,0,1005.1,5,8,"",99
"2014-01-09 00:03:00",10.8,10.6,0.0,0.0,0,1005.1,3,7,"",99
"2014-01-09 00:04:00",10.8,10.6,0.0,0.0,0,1005.0,5,5,"",99
"2014-01-09 00:05:00",10.8,10.6,0.0,0.0,0,1005.0,2,3,"",99
"2014-01-09 00:06:00",10.8,10.6,0.0,0.0,0,1005.0,1,7,"",99
"2014-01-09 00:07:00",10.8,10.6,0.0,0.0,0,1005.0,3,8,"",99
"2014-01-09 00:08:00",10.8,10.6,0.0,0.0,0,1005.0,3,7,"",99
"2014-01-09 00:09:00",10.8,10.6,0.0,0.0,0,1004.9,3,7,"",99
"2014-01-09 00:10:00",10.8,10.6,0.0,0.0,0,1004.9,3,5,"",99
"2014-01-09 00:11:00",10.8,10.6,0.0,0.0,0,1004.9,3,10,"",99
"2014-01-09 00:12:00",10.8,10.6,0.0,0.0,0,1004.8,2,3,"",99
"2014-01-09 00:13:00",10.8,10.6,0.0,0.0,0,1004.8,2,5,"",99
"2014-01-09 00:14:00",10.8,10.6,0.0,0.0,0,1004.9,3,7,"",99
"2014-01-09 00:15:00",10.8,10.6,0.0,0.0,0,1004.8,5,5,"",99
"2014-01-09 00:16:00",10.8,10.6,0.0,0.0,0,1004.8,2,3,"",99
"2014-01-09 00:17:00",10.8,10.6,0.0,0.0,0,1004.8,3,12,"",99
"2014-01-09 00:18:00",10.8,10.6,0.0,0.0,0,1004.8,5,7,"",99
"2014-01-09 00:19:00",10.8,10.6,0.0,0.0,0,1004.9,5,18,"",99
"2014-01-09 00:20:00",10.8,10.6,0.0,0.0,0,1004.9,6,7,"",99
"2014-01-09 00:21:00",10.8,10.6,0.0,0.0,0,1005.0,3,5,"",99
"2014-01-09 00:22:00",10.8,10.6,0.0,0.0,0,1004.9,1,1,"",99
"2014-01-09 00:23:00",10.8,10.6,0.0,0.0,0,1004.9,1,7,"",99
"2014-01-09 00:24:00",10.8,10.6,0.0,0.0,0,1004.9,3,7,"",99
"2014-01-09 00:25:00",10.8,10.6,0.0,0.0,0,1004.9,2,7,"",99
"2014-01-09 00:26:00",10.8,10.6,0.0,0.0,0,1004.8,3,7,"",99
"2014-01-09 00:27:00",10.8,10.6,0.0,0.0,0,1004.8,3,3,"",99
"2014-01-09 00:28:00",10.8,10.6,0.0,0.0,0,1004.8,2,10,"",99
"2014-01-09 00:29:00",10.8,10.6,0.0,0.0,0,1004.7,3,5,"",99
"2014-01-09 00:30:00",10.8,10.6,0.0,0.0,0,1004.6,2,3,"",99
"2014-01-09 00:31:00",10.8,10.6,0.0,0.0,0,1004.6,1,1,"",99
"2014-01-09 00:32:00",10.8,10.5,0.0,0.0,0,1004.5,2,5,"",98
"2014-01-09 00:33:00",10.8,10.5,0.0,0.0,0,1004.4,2,3,"",98
"2014-01-09 00:34:00",10.8,10.5,0.0,0.0,0,1004.3,2,7,"",98
"2014-01-09 00:35:00",10.8,10.5,0.0,0.0,0,1004.3,2,5,"",98
"2014-01-09 00:36:00",10.8,10.5,0.0,0.0,0,1004.4,2,12,"",98
"2014-01-09 00:37:00",10.8,10.5,0.0,0.0,0,1004.3,6,12,"",98
"2014-01-09 00:38:00",10.8,10.5,0.0,0.0,0,1004.3,3,7,"",98
"2014-01-09 00:39:00",10.8,10.5,0.0,0.0,0,1004.2,3,7,"",98
"2014-01-09 00:40:00",10.8,10.5,0.0,0.0,0,1004.2,2,3,"",98
"2014-01-09 00:41:00",10.8,10.5,0.0,0.0,0,1004.2,1,5,"",98
"2014-01-09 00:42:00",10.8,10.5,0.0,0.0,0,1004.1,2,3,"",98
"2014-01-09 00:43:00",10.8,10.5,0.0,0.0,0,1004.1,1,5,"",98
"2014-01-09 00:44:00",10.8,10.5,0.0,0.0,0,1004.1,2,3,"",98
"2014-01-09 00:45:00",10.8,10.5,0.0,0.0,0,1004.1,1,8,"",98
"2014-01-09 00:46:00",10.8,10.5,0.0,0.0,0,1004.1,3,3,"",98
"2014-01-09 00:47:00",10.8,10.5,0.0,0.0,0,1004.0,3,8,"",98
"2014-01-09 00:48:00",10.8,10.5,0.0,0.0,0,1003.9,2,5,"",98
"2014-01-09 00:49:00",10.8,10.5,0.0,0.0,0,1003.9,3,5,"",98
"2014-01-09 00:50:00",10.8,10.5,0.0,0.0,0,1003.9,3,5,"",98
"2014-01-09 00:51:00",10.8,10.5,0.0,0.0,0,1003.8,2,5,"",98
"2014-01-09 00:52:00",10.8,10.5,0.0,0.0,0,1003.8,2,7,"",98
"2014-01-09 00:53:00",10.8,10.5,0.0,0.0,0,1003.8,2,7,"",98
"2014-01-09 00:54:00",10.8,10.5,0.0,0.0,0,1003.8,2,15,"",98
"2014-01-09 00:55:00",10.8,10.5,0.0,0.0,0,1003.8,5,10,"",98
"2014-01-09 00:56:00",10.8,10.5,0.0,0.0,0,1003.7,2,7,"",98
"2014-01-09 00:57:00",10.8,10.5,0.0,0.0,0,1003.8,3,5,"",98
"2014-01-09 00:58:00",10.8,10.5,0.0,0.0,0,1003.8,3,8,"",98
"2014-01-09 00:59:00",10.8,10.5,0.0,0.0,0,1003.8,2,3,"",98
"2014-01-09 01:00:00",10.8,10.5,0.0,0.0,0,1003.8,2,5,"",98
"2014-01-09 01:01:00",10.8,10.5,0.0,0.0,0,1003.8,2,1,"",98
"2014-01-09 01:02:00",10.8,10.5,0.0,0.0,0,1003.8,1,3,"",98
"2014-01-09 01:03:00",10.8,10.5,0.0,0.0,0,1003.8,1,1,"",98
"2014-01-09 01:04:00",10.8,10.5,0.0,0.0,0,1003.9,1,3,"",98
"2014-01-09 01:05:00",10.8,10.5,0.0,0.0,0,1003.9,1,3,"",98
"2014-01-09 01:06:00",10.8,10.5,0.0,0.0,0,1003.8,2,3,"",98
"2014-01-09 01:07:00",10.8,10.5,0.0,0.0,0,1003.8,2,3,"",98
"2014-01-09 01:08:00",10.8,10.5,0.0,0.0,0,1003.8,3,7,"",98
"2014-01-09 01:09:00",10.7,10.4,0.0,0.0,0,1003.8,5,12,"",98
"2014-01-09 01:10:00",10.7,10.4,0.0,0.0,0,1003.8,5,12,"",98
"2014-01-09 01:11:00",10.7,10.4,0.0,0.0,0,1003.8,2,3,"",98
"2014-01-09 01:12:00",10.7,10.4,0.0,0.0,0,1003.8,3,8,"",98
"2014-01-09 01:13:00",10.7,10.4,0.0,0.0,0,1003.8,3,5,"",98
"2014-01-09 01:14:00",10.7,10.4,0.0,0.0,0,1003.8,3,7,"",98
"2014-01-09 01:15:00",10.7,10.4,0.0,0.0,0,1003.8,3,3,"",98
"2014-01-09 01:16:00",10.7,10.4,0.0,0.0,0,1003.8,2,5,"",98
"2014-01-09 01:17:00",10.7,10.4,0.0,0.0,0,1003.7,2,8,"",98
"2014-01-09 01:18:00",10.7,10.4,0.0,0.0,0,1003.7,3,7,"",98
"2014-01-09 01:19:00",10.7,10.4,0.0,0.0,0,1003.7,6,18,"",98
"2014-01-09 01:20:00",10.7,10.4,0.0,0.0,0,1003.6,3,1,"",98
"2014-01-09 01:21:00",10.7,10.4,0.0,0.0,0,1003.5,1,3,"",98
"2014-01-09 01:22:00",10.7,10.4,0.0,0.0,0,1003.5,2,5,"",98
"2014-01-09 01:23:00",10.7,10.4,0.0,0.0,0,1003.5,3,5,"",98
"2014-01-09 01:24:00",10.7,10.4,0.0,0.0,0,1003.4,1,1,"",98
"2014-01-09 01:25:00",10.7,10.4,0.0,0.0,0,1003.5,1,5,"",98
"2014-01-09 01:26:00",10.7,10.4,0.0,0.0,0,1003.4,2,5,"",98
"2014-01-09 01:27:00",10.7,10.4,0.0,0.0,0,1003.4,2,5,"",98
"2014-01-09 01:28:00",10.7,10.4,0.0,0.0,0,1003.4,1,3,"",98
"2014-01-09 01:29:00",10.7,10.4,0.0,0.0,0,1003.4,1,5,"",98
"2014-01-09 01:30:00",10.7,10.4,0.0,0.0,0,1003.4,2,5,"",98
"2014-01-09 01:31:00",10.7,10.4,0.0,0.0,0,1003.3,2,8,"",98
"2014-01-09 01:32:00",10.7,10.4,0.0,0.0,0,1003.3,3,8,"",98
"2014-01-09 01:33:00",10.7,10.4,0.0,0.0,0,1003.2,2,5,"",98
"2014-01-09 01:34:00",10.7,10.4,0.0,0.0,0,1003.2,2,5,"",98
"2014-01-09 01:35:00",10.7,10.4,0.0,0.0,0,1003.1,2,7,"",98
"2014-01-09 01:36:00",10.7,10.4,0.0,0.0,0,1003.2,6,16,"",98
"2014-01-09 01:37:00",10.7,10.4,0.0,0.0,0,1003.2,7,12,"",98
"2014-01-09 01:38:00",10.7,10.4,0.0,0.0,0,1003.1,3,5,"",98
"2014-01-09 01:39:00",10.7,10.4,0.0,0.0,0,1003.1,3,8,"",98
"2014-01-09 01:40:00",10.7,10.4,0.0,0.0,0,1003.1,3,5,"",98
"2014-01-09 01:41:00",10.7,10.4,0.0,0.0,0,1003.1,3,8,"",98
"2014-01-09 01:42:00",10.7,10.4,0.0,0.0,0,1003.0,3,8,"",98
"2014-01-09 01:43:00",10.7,10.4,0.0,0.0,0,1003.1,5,7,"",98
"2014-01-09 01:44:00",10.7,10.4,0.0,0.0,0,1003.0,2,3,"",98
"2014-01-09 01:45:00",10.7,10.4,0.0,0.0,0,1003.0,2,5,"",98
"2014-01-09 01:46:00",10.7,10.4,0.0,0.0,0,1002.9,3,10,"",98
"2014-01-09 01:47:00",10.7,10.4,0.0,0.0,0,1002.9,5,8,"",98
"2014-01-09 01:48:00",10.7,10.4,0.0,0.0,0,1002.9,3,5,"",98
"2014-01-09 01:49:00",10.7,10.4,0.0,0.0,0,1002.9,2,5,"",98
"2014-01-09 01:50:00",10.7,10.4,0.0,0.0,0,1002.8,2,10,"",98
"2014-01-09 01:51:00",10.7,10.4,0.0,0.0,0,1002.8,5,14,"",98
"2014-01-09 01:52:00",10.7,10.4,0.0,0.0,0,1002.8,3,5,"",98
"2014-01-09 01:53:00",10.7,10.4,0.0,0.0,0,1002.8,2,3,"",98
"2014-01-09 01:54:00",10.7,10.4,0.0,0.0,0,1002.7,2,5,"",98
"2014-01-09 01:55:00",10.7,10.4,0.0,0.0,0,1002.7,2,5,"",98
"2014-01-09 01:56:00",10.7,10.4,0.0,0.0,0,1002.7,3,7,"",98
"2014-01-09 01:57:00",10.7,10.4,0.0,0.0,0,1002.7,3,5,"",98
"2014-01-09 01:58:00",10.7,10.4,0.0,0.0,0,1002.6,3,5,"",98
"2014-01-09 01:59:00",10.7,10.4,0.0,0.0,0,1002.6,2,7,"",98
"2014-01-09 02:00:00",10.7,10.4,0.0,0.0,0,1002.5,3,7,"",98
"2014-01-09 02:01:00",10.7,10.4,0.0,0.0,0,1002.5,3,5,"",98
"2014-01-09 02:02:00",10.7,10.4,0.0,0.0,0,1002.4,1,1,"",98
"2014-01-09 02:03:00",10.7,10.4,0.0,0.0,0,1002.3,1,5,"",98
"2014-01-09 02:04:00",10.7,10.4,0.0,0.0,0,1002.3,1,3,"",98
"2014-01-09 02:05:00",10.7,10.4,0.0,0.0,0,1002.3,2,3,"",98
"2014-01-09 02:06:00",10.7,10.4,0.0,0.0,0,1002.3,2,3,"",98
"2014-01-09 02:07:00",10.7,10.4,0.0,0.0,0,1002.4,2,3,"",98
"2014-01-09 02:08:00",10.7,10.4,0.0,0.0,0,1002.4,3,10,"",98
"2014-01-09 02:09:00",10.7,10.4,0.2,0.0,0,1002.4,3,5,"",98
"2014-01-09 02:10:00",10.7,10.4,0.2,0.0,0,1002.3,2,5,"",98
"2014-01-09 02:11:00",10.7,10.4,0.2,0.0,0,1002.3,2,5,"",98
"2014-01-09 02:12:00",10.7,10.4,0.2,0.0,0,1002.3,2,5,"",98
"2014-01-09 02:13:00",10.7,10.4,0.2,0.0,0,1002.3,2,5,"",98
"2014-01-09 02:14:00",10.7,10.4,0.4,0.0,0,1002.2,2,5,"",98
"2014-01-09 02:15:00",10.7,10.4,0.4,0.0,0,1002.2,2,10,"",98
"2014-01-09 02:16:00",10.7,10.4,0.4,0.0,0,1002.2,5,8,"",98
"2014-01-09 02:17:00",10.7,10.4,0.4,0.0,0,1002.2,3,7,"",98
"2014-01-09 02:18:00",10.7,10.4,0.6,0.0,0,1002.2,2,5,"",98
"2014-01-09 02:19:00",10.7,10.4,0.6,0.0,0,1002.2,3,15,"",98
"2014-01-09 02:20:00",10.7,10.4,0.6,0.0,0,1002.2,6,3,"",98
"2014-01-09 02:21:00",10.7,10.4,0.6,0.0,0,1002.3,2,5,"",98
"2014-01-09 02:22:00",10.7,10.4,0.6,0.0,0,1002.3,2,7,"",98
"2014-01-09 02:23:00",10.7,10.4,0.6,0.0,0,1002.4,3,5,"",98
"2014-01-09 02:24:00",10.7,10.4,0.6,0.0,0,1002.3,2,5,"",98
"2014-01-09 02:25:00",10.7,10.4,0.6,0.0,0,1002.3,3,8,"",98
"2014-01-09 02:26:00",10.7,10.4,0.6,0.0,0,1002.2,3,7,"",98
"2014-01-09 02:27:00",10.7,10.4,0.6,0.0,0,1002.3,5,7,"",98
"2014-01-09 02:28:00",10.7,10.4,0.6,0.0,0,1002.3,5,7,"",98
"2014-01-09 02:29:00",10.7,10.4,0.6,0.0,0,1002.2,2,5,"",98
"2014-01-09 02:30:00",10.7,10.4,0.6,0.0,0,1002.1,2,5,"",98
"2014-01-09 02:31:00",10.7,10.4,0.6,0.0,0,1002.1,1,1,"",98
"2014-01-09 02:32:00",10.7,10.4,0.6,0.0,0,1002.1,2,7,"",98
"2014-01-09 02:33:00",10.7,10.4,0.6,0.0,0,1002.1,3,5,"",98
"2014-01-09 02:34:00",10.7,10.4,0.6,0.0,0,1002.0,3,7,"",98
"2014-01-09 02:35:00",10.7,10.4,0.6,0.0,0,1002.0,3,5,"",98
"2014-01-09 02:36:00",10.6,10.3,0.6,0.0,0,1002.0,2,5,"",98
"2014-01-09 02:37:00",10.7,10.4,0.6,0.0,0,1002.0,2,3,"",98
"2014-01-09 02:38:00",10.7,10.4,0.8,0.0,0,1002.0,2,7,"",98
"2014-01-09 02:39:00",10.7,10.4,0.8,0.0,0,1002.1,5,7,"",98
"2014-01-09 02:40:00",10.7,10.4,0.8,0.0,0,1002.1,5,8,"",98
"2014-01-09 02:41:00",10.7,10.4,1.0,0.0,0,1002.1,5,12,"",98
"2014-01-09 02:42:00",10.7,10.4,1.0,0.0,0,1002.0,3,3,"",98
"2014-01-09 02:43:00",10.7,10.4,1.0,0.0,0,1002.0,2,3,"",98
"2014-01-09 02:44:00",10.6,10.3,1.0,0.0,0,1002.0,1,1,"",98
"2014-01-09 02:45:00",10.6,10.3,1.0,0.0,0,1002.0,0,1,"",98
"2014-01-09 02:46:00",10.6,10.3,1.2,0.0,0,1002.0,1,5,"",98
"2014-01-09 02:47:00",10.6,10.3,1.2,0.0,0,1002.2,2,3,"",98
"2014-01-09 02:48:00",10.6,10.3,1.2,0.0,0,1002.2,2,5,"",98
"2014-01-09 02:49:00",10.6,10.3,1.2,0.0,0,1002.1,2,7,"",98
"2014-01-09 02:50:00",10.6,10.3,1.4,0.0,0,1002.0,3,5,"",98
"2014-01-09 02:51:00",10.6,10.3,1.4,0.0,0,1002.1,2,3,"",98
"2014-01-09 02:52:00",10.6,10.3,1.4,0.0,0,1002.1,2,3,"",98
"2014-01-09 02:53:00",10.6,10.3,1.4,0.0,0,1002.1,2,7,"",98
"2014-01-09 02:54:00",10.6,10.3,1.4,0.0,0,1002.3,5,8,"",98
"2014-01-09 02:55:00",10.6,10.3,1.4,0.0,0,1002.1,3,5,"",98
"2014-01-09 02:56:00",10.6,10.3,1.4,0.0,0,1002.2,2,3,"",98
"2014-01-09 02:57:00",10.6,10.3,1.4,0.0,0,1002.2,2,3,"",98
"2014-01-09 02:58:00",10.6,10.3,1.4,0.0,0,1002.3,1,3,"",98
"2014-01-09 02:59:00",10.5,10.1,1.4,0.0,0,1002.3,2,3,"",97
"2014-01-09 03:00:00",10.5,10.2,1.4,0.0,0,1002.4,2,5,"",98
"2014-01-09 03:01:00",10.5,10.2,1.4,0.0,0,1002.4,2,5,"",98
"2014-01-09 03:02:00",10.4,10.0,1.4,0.0,0,1002.4,2,8,"",97
"2014-01-09 03:03:00",10.4,10.0,1.4,0.0,0,1002.2,5,7,"",97
"2014-01-09 03:04:00",10.4,9.9,1.4,0.0,0,1002.2,5,8,"",97
"2014-01-09 03:05:00",10.3,9.9,1.4,0.0,0,1002.0,3,3,"",97
"2014-01-09 03:06:00",10.3,9.9,1.4,0.0,0,1002.0,2,8,"",97
"2014-01-09 03:07:00",10.3,9.7,1.4,0.0,0,1001.9,2,3,"",96
"2014-01-09 03:08:00",10.3,9.7,1.4,0.0,0,1002.0,2,1,"",96
"2014-01-09 03:09:00",10.2,9.6,1.4,0.0,0,1002.0,1,3,"",96
"2014-01-09 03:10:00",10.2,9.6,1.4,0.0,0,1002.0,2,3,"",96
"2014-01-09 03:11:00",10.2,9.5,1.4,0.0,0,1001.9,2,5,"",95
"2014-01-09 03:12:00",10.1,9.3,1.4,0.0,0,1001.9,3,5,"",95
"2014-01-09 03:13:00",10.1,9.3,1.4,0.0,0,1001.9,2,3,"",95
"2014-01-09 03:14:00",10.1,9.3,1.4,0.0,0,1001.8,2,7,"",95
"2014-01-09 03:15:00",10.0,9.3,1.4,0.0,0,1001.8,3,7,"",95
"2014-01-09 03:16:00",10.0,9.2,1.4,0.0,0,1001.8,2,5,"",95
"2014-01-09 03:17:00",10.0,9.2,1.4,0.0,0,1001.7,3,7,"",95
"2014-01-09 03:18:00",9.9,9.2,1.4,0.0,0,1001.7,3,3,"",95
"2014-01-09 03:19:00",9.9,9.2,1.4,0.0,0,1001.7,2,8,"",95
"2014-01-09 03:20:00",9.9,9.2,1.4,0.0,0,1001.7,5,10,"",95
"2014-01-09 03:21:00",9.9,9.2,1.4,0.0,0,1001.7,7,18,"",95
"2014-01-09 03:22:00",9.9,9.0,1.4,0.0,0,1001.7,3,1,"",94
"2014-01-09 03:23:00",9.9,9.0,1.4,0.0,0,1001.6,1,5,"",94
"2014-01-09 03:24:00",9.9,9.0,1.4,0.0,0,1001.6,3,7,"",94
"2014-01-09 03:25:00",9.9,9.0,1.4,0.0,0,1001.5,3,7,"",94
"2014-01-09 03:26:00",9.9,9.0,1.4,0.0,0,1001.5,3,15,"",94
"2014-01-09 03:27:00",9.9,9.0,1.4,0.0,0,1001.5,3,7,"",94
"2014-01-09 03:28:00",9.9,9.0,1.4,0.0,0,1001.6,2,7,"",94
"2014-01-09 03:29:00",9.9,9.0,1.4,0.0,0,1001.6,3,7,"",94
"2014-01-09 03:30:00",9.9,8.9,1.4,0.0,0,1001.6,3,8,"",93
"2014-01-09 03:31:00",9.8,8.9,1.4,0.0,0,1001.5,2,7,"",94
"2014-01-09 03:32:00",9.8,9.1,1.4,0.0,0,1001.6,3,8,"",95
"2014-01-09 03:33:00",9.8,9.1,1.4,0.0,0,1001.6,2,5,"",95
"2014-01-09 03:34:00",9.8,9.1,1.4,0.0,0,1001.5,2,7,"",95
"2014-01-09 03:35:00",9.8,9.1,1.4,0.0,0,1001.5,6,12,"",95
"2014-01-09 03:36:00",9.8,8.9,1.4,0.0,0,1001.5,3,3,"",94
"2014-01-09 03:37:00",9.8,8.9,1.4,0.0,0,1001.5,1,1,"",94
"2014-01-09 03:38:00",9.8,8.9,1.4,0.0,0,1001.6,2,5,"",94
"2014-01-09 03:39:00",9.8,8.9,1.4,0.0,0,1001.6,2,3,"",94
"2014-01-09 03:40:00",9.8,8.9,1.4,0.0,0,1001.6,3,10,"",94
"2014-01-09 03:41:00",9.8,8.9,1.4,0.0,0,1001.6,5,3,"",94
"2014-01-09 03:42:00",9.8,8.9,1.4,0.0,0,1001.6,2,7,"",94
"2014-01-09 03:43:00",9.8,8.9,1.4,0.0,0,1001.4,5,12,"",94
"2014-01-09 03:44:00",9.8,8.9,1.4,0.0,0,1001.6,5,7,"",94
"2014-01-09 03:45:00",9.8,8.9,1.4,0.0,0,1001.5,6,10,"",94
"2014-01-09 03:46:00",9.8,8.9,1.4,0.0,0,1001.6,3,3,"",94
"2014-01-09 03:47:00",9.8,8.9,1.4,0.0,0,1001.5,3,7,"",94
"2014-01-09 03:48:00",9.8,8.9,1.4,0.0,0,1001.5,3,12,"",94
"2014-01-09 03:49:00",9.8,8.9,1.4,0.0,0,1001.4,5,7,"",94
"2014-01-09 03:50:00",9.8,8.9,1.4,0.0,0,1001.5,3,12,"",94
"2014-01-09 03:51:00",9.8,8.7,1.4,0.0,0,1001.5,5,7,"",93
"2014-01-09 03:52:00",9.7,8.7,1.4,0.0,0,1001.4,1,5,"",93
"2014-01-09 03:53:00",9.7,8.6,1.4,0.0,0,1001.3,2,7,"",93
"2014-01-09 03:54:00",9.7,8.6,1.4,0.0,0,1001.3,5,10,"",93
"2014-01-09 03:55:00",9.7,8.6,1.4,0.0,0,1001.2,5,10,"",93
"2014-01-09 03:56:00",9.7,8.6,1.4,0.0,0,1001.2,3,5,"",93
"2014-01-09 03:57:00",9.7,8.6,1.4,0.0,0,1001.2,3,12,"",93
"2014-01-09 03:58:00",9.7,8.6,1.4,0.0,0,1001.2,2,1,"",93
"2014-01-09 03:59:00",9.7,8.4,1.4,0.0,0,1001.1,5,16,"",92
"2014-01-09 04:00:00",9.7,8.4,1.4,0.0,0,1001.1,5,20,"",92
"2014-01-09 04:01:00",9.7,8.4,1.4,0.0,0,1001.1,6,7,"",92
"2014-01-09 04:02:00",9.7,8.4,1.4,0.0,0,1001.1,3,7,"",92
"2014-01-09 04:03:00",9.6,8.4,1.4,0.0,0,1001.1,5,8,"",92
"2014-01-09 04:04:00",9.6,8.4,1.4,0.0,0,1001.0,5,5,"",92
"2014-01-09 04:05:00",9.6,8.2,1.4,0.0,0,1001.1,2,5,"",91
"2014-01-09 04:06:00",9.6,8.2,1.4,0.0,0,1001.0,3,5,"",91
"2014-01-09 04:07:00",9.6,8.2,1.4,0.0,0,1001.1,2,3,"",91
"2014-01-09 04:08:00",9.6,8.2,1.4,0.0,0,1001.1,1,10,"",91
"2014-01-09 04:09:00",9.6,8.2,1.4,0.0,0,1001.2,3,10,"",91
"2014-01-09 04:10:00",9.6,8.2,1.4,0.0,0,1001.1,3,5,"",91
"2014-01-09 04:11:00",9.6,8.2,1.4,0.0,0,1001.1,2,5,"",91
"2014-01-09 04:12:00",9.5,8.1,1.4,0.0,0,1001.1,3,8,"",91
"2014-01-09 04:13:00",9.5,8.1,1.4,0.0,0,1001.0,3,5,"",91
"2014-01-09 04:14:00",9.5,8.1,1.4,0.0,0,1001.0,1,3,"",91
"2014-01-09 04:15:00",9.5,8.1,1.4,0.0,0,1001.0,1,1,"",91
"2014-01-09 04:16:00",9.5,8.1,1.4,0.0,0,1001.0,1,7,"",91
"2014-01-09 04:17:00",9.5,8.1,1.4,0.0,0,1000.9,2,10,"",91
"2014-01-09 04:18:00",9.4,8.1,1.4,0.0,0,1000.9,3,7,"",92
"2014-01-09 04:19:00",9.4,8.0,1.4,0.0,0,1001.0,2,16,"",91
"2014-01-09 04:20:00",9.4,8.0,1.4,0.0,0,1000.9,5,16,"",91
"2014-01-09 04:21:00",9.4,7.9,1.4,0.0,0,1001.0,2,3,"",90
"2014-01-09 04:22:00",9.4,8.0,1.4,0.0,0,1000.9,2,5,"",91
"2014-01-09 04:23:00",9.4,8.0,1.4,0.0,0,1000.9,2,3,"",91
"2014-01-09 04:24:00",9.4,8.0,1.4,0.0,0,1000.9,2,7,"",91
"2014-01-09 04:25:00",9.4,8.0,1.4,0.0,0,1000.9,3,7,"",91
"2014-01-09 04:26:00",9.4,8.0,1.4,0.0,0,1000.9,5,7,"",91
"2014-01-09 04:27:00",9.4,8.0,1.4,0.0,0,1000.8,5,8,"",91
"2014-01-09 04:28:00",9.4,8.0,1.4,0.0,0,1000.8,5,7,"",91
"2014-01-09 04:29:00",9.3,7.9,1.4,0.0,0,1000.7,3,8,"",91
"2014-01-09 04:30:00",9.3,7.9,1.4,0.0,0,1000.8,3,7,"",91
"2014-01-09 04:31:00",9.3,7.9,1.4,0.0,0,1000.8,2,5,"",91
"2014-01-09 04:32:00",9.3,7.9,1.4,0.0,0,1000.8,2,3,"",91
"2014-01-09 04:33:00",9.3,7.9,1.4,0.0,0,1000.8,2,12,"",91
"2014-01-09 04:34:00",9.3,7.9,1.4,0.0,0,1000.7,3,3,"",91
"2014-01-09 04:35:00",9.3,7.9,1.4,0.0,0,1000.6,2,5,"",91
"2014-01-09 04:36:00",9.3,7.9,1.4,0.0,0,1000.6,3,5,"",91
"2014-01-09 04:37:00",9.3,7.9,1.4,0.0,0,1000.7,3,5,"",91
"2014-01-09 04:38:00",9.3,7.9,1.4,0.0,0,1000.7,3,8,"",91
"2014-01-09 04:39:00",9.3,7.9,1.4,0.0,0,1000.6,3,5,"",91
"2014-01-09 04:40:00",9.3,7.9,1.4,0.0,0,1000.7,2,3,"",91
"2014-01-09 04:41:00",9.3,7.9,1.4,0.0,0,1000.7,2,5,"",91
"2014-01-09 04:42:00",9.3,7.9,1.4,0.0,0,1000.6,3,7,"",91
"2014-01-09 04:43:00",9.3,7.9,1.4,0.0,0,1000.5,3,5,"",91
"2014-01-09 04:44:00",9.3,7.9,1.4,0.0,0,1000.5,3,5,"",91
"2014-01-09 04:45:00",9.3,7.9,1.4,0.0,0,1000.5,3,7,"",91
"2014-01-09 04:46:00",9.3,7.9,1.4,0.0,0,1000.5,2,3,"",91
"2014-01-09 04:47:00",9.3,7.9,1.4,0.0,0,1000.5,1,3,"",91
"2014-01-09 04:48:00",9.3,7.9,1.4,0.0,0,1000.5,2,5,"",91
"2014-01-09 04:49:00",9.3,7.9,1.4,0.0,0,1000.5,3,3,"",91
"2014-01-09 04:50:00",9.3,7.9,1.4,0.0,0,1000.5,2,7,"",91
"2014-01-09 04:51:00",9.3,7.9,1.4,0.0,0,1000.5,3,12,"",91
"2014-01-09 04:52:00",9.3,7.9,1.4,0.0,0,1000.6,5,8,"",91
"2014-01-09 04:53:00",9.3,7.9,1.4,0.0,0,1000.6,3,5,"",91
"2014-01-09 04:54:00",9.4,8.0,1.4,0.0,0,1000.6,3,7,"",91
"2014-01-09 04:55:00",9.4,8.0,1.4,0.0,0,1000.5,3,7,"",91
"2014-01-09 04:56:00",9.4,8.0,1.4,0.0,0,1000.4,3,10,"",91
"2014-01-09 04:57:00",9.4,8.0,1.4,0.0,0,1000.4,5,10,"",91
"2014-01-09 04:58:00",9.4,8.0,1.4,0.0,0,1000.3,3,3,"",91
"2014-01-09 04:59:00",9.4,8.0,1.4,0.0,0,1000.4,2,5,"",91
"2014-01-09 05:00:00",9.4,8.0,1.4,0.0,0,1000.4,2,10,"",91
"2014-01-09 05:01:00",9.4,8.0,1.4,0.0,0,1000.3,5,7,"",91
"2014-01-09 05:02:00",9.4,8.0,1.4,0.0,0,1000.4,3,5,"",91
"2014-01-09 05:03:00",9.4,8.0,1.4,0.0,0,1000.4,2,5,"",91
"2014-01-09 05:04:00",9.4,8.0,1.4,0.0,0,1000.4,3,8,"",91
"2014-01-09 05:05:00",9.4,8.0,1.4,0.0,0,1000.3,3,5,"",91
"2014-01-09 05:06:00",9.4,8.0,1.4,0.0,0,1000.5,3,8,"",91
"2014-01-09 05:07:00",9.5,8.1,1.4,0.0,0,1000.3,7,15,"",91
"2014-01-09 05:08:00",9.5,8.1,1.4,0.0,0,1000.4,5,12,"",91
"2014-01-09 05:09:00",9.5,8.1,1.4,0.0,0,1000.4,6,12,"",91
"2014-01-09 05:10:00",9.5,8.1,1.4,0.0,0,1000.4,3,7,"",91
"2014-01-09 05:11:00",9.5,8.1,1.4,0.0,0,1000.3,2,3,"",91
"2014-01-09 05:12:00",9.5,8.1,1.4,0.0,0,1000.4,2,14,"",91
"2014-01-09 05:13:00",9.6,8.2,1.4,0.0,0,1000.2,3,7,"",91
"2014-01-09 05:14:00",9.6,8.2,1.4,0.0,0,1000.3,3,10,"",91
"2014-01-09 05:15:00",9.6,8.2,1.4,0.0,0,1000.3,6,15,"",91
"2014-01-09 05:16:00",9.6,8.2,1.4,0.0,0,1000.2,5,7,"",91
"2014-01-09 05:17:00",9.6,8.2,1.4,0.0,0,1000.2,2,12,"",91
"2014-01-09 05:18:00",9.6,8.2,1.4,0.0,0,1000.2,5,8,"",91
"2014-01-09 05:19:00",9.6,8.2,1.4,0.0,0,1000.2,5,12,"",91
"2014-01-09 05:20:00",9.6,8.2,1.4,0.0,0,1000.2,3,7,"",91
"2014-01-09 05:21:00",9.6,8.2,1.4,0.0,0,1000.2,1,8,"",91
"2014-01-09 05:22:00",9.6,8.2,1.4,0.0,0,1000.2,3,8,"",91
"2014-01-09 05:23:00",9.6,8.4,1.4,0.0,0,1000.2,3,8,"",92
"2014-01-09 05:24:00",9.6,8.4,1.4,0.0,0,1000.2,6,10,"",92
"2014-01-09 05:25:00",9.6,8.4,1.4,0.0,0,1000.1,5,7,"",92
"2014-01-09 05:26:00",9.6,8.4,1.4,0.0,0,1000.2,3,7,"",92
"2014-01-09 05:27:00",9.6,8.3,1.6,0.0,0,1000.2,3,23,"",92
"2014-01-09 05:28:00",9.6,8.5,1.6,0.0,0,999.9,8,16,"",93
"2014-01-09 05:29:00",9.6,8.5,1.6,0.0,0,1000.0,6,10,"",93
"2014-01-09 05:30:00",9.6,8.5,1.6,0.0,0,1000.1,5,8,"",93
"2014-01-09 05:31:00",9.6,8.5,1.6,0.0,0,1000.1,2,3,"",93
"2014-01-09 05:32:00",9.6,8.5,1.6,0.0,0,1000.0,2,3,"",93
"2014-01-09 05:33:00",9.5,8.5,1.8,0.0,0,1000.0,2,7,"",93
"2014-01-09 05:34:00",9.5,8.6,1.8,0.0,0,1000.0,2,3,"",94
"2014-01-09 05:35:00",9.5,8.6,1.8,0.0,0,999.9,1,3,"",94
"2014-01-09 05:36:00",9.5,8.6,1.8,0.0,0,999.9,3,12,"",94
"2014-01-09 05:37:00",9.5,8.5,1.8,0.0,0,999.9,5,7,"",93
"2014-01-09 05:38:00",9.4,8.5,1.8,0.0,0,999.9,3,7,"",94
"2014-01-09 05:39:00",9.4,8.5,1.8,0.0,0,1000.0,2,3,"",94
"2014-01-09 05:40:00",9.4,8.5,1.8,0.0,0,999.9,2,7,"",94
"2014-01-09 05:41:00",9.4,8.5,1.8,0.0,0,1000.0,3,5,"",94
"2014-01-09 05:42:00",9.4,8.5,1.8,0.0,0,999.9,3,5,"",94
"2014-01-09 05:43:00",9.4,8.5,1.8,0.0,0,1000.0,3,7,"",94
"2014-01-09 05:44:00",9.3,8.4,1.8,0.0,0,1000.0,3,5,"",94
"2014-01-09 05:45:00",9.3,8.4,1.8,0.0,0,1000.0,3,8,"",94
"2014-01-09 05:46:00",9.3,8.6,1.8,0.0,0,1000.1,3,7,"",95
"2014-01-09 05:47:00",9.3,8.6,1.8,0.0,0,1000.0,5,15,"",95
"2014-01-09 05:48:00",9.3,8.5,1.8,0.0,0,1000.1,3,5,"",95
"2014-01-09 05:49:00",9.3,8.5,1.8,0.0,0,1000.0,3,7,"",95
"2014-01-09 05:50:00",9.3,8.5,1.8,0.0,0,1000.0,5,8,"",95
"2014-01-09 05:51:00",9.2,8.5,1.8,0.0,0,1000.1,3,7,"",95
"2014-01-09 05:52:00",9.2,8.5,1.8,0.0,0,1000.2,2,3,"",95
"2014-01-09 05:53:00",9.2,8.5,1.8,0.0,0,1000.2,2,5,"",95
"2014-01-09 05:54:00",9.2,8.5,1.8,0.0,0,1000.2,3,5,"",95
"2014-01-09 05:55:00",9.2,8.4,1.8,0.0,0,1000.2,3,10,"",95
"2014-01-09 05:56:00",9.2,8.4,1.8,0.0,0,1000.2,5,5,"",95
"2014-01-09 05:57:00",9.2,8.4,1.8,0.0,0,1000.1,3,5,"",95
"2014-01-09 05:58:00",9.2,8.4,1.8,0.0,0,1000.1,5,8,"",95
"2014-01-09 05:59:00",9.2,8.4,1.8,0.0,0,1000.2,3,7,"",95
"2014-01-09 06:00:00",9.2,8.4,1.8,0.0,0,1000.2,3,7,"",95
"2014-01-09 06:01:00",9.2,8.4,1.8,0.0,0,1000.2,3,7,"",95
"2014-01-09 06:02:00",9.2,8.4,1.8,0.0,0,1000.2,3,5,"",95
"2014-01-09 06:03:00",9.2,8.4,1.8,0.0,0,1000.1,3,8,"",95
"2014-01-09 06:04:00",9.2,8.4,1.8,0.0,0,1000.1,2,5,"",95
"2014-01-09 06:05:00",9.2,8.4,1.8,0.0,0,1000.1,2,5,"",95
"2014-01-09 06:06:00",9.2,8.4,1.8,0.0,0,1000.2,2,3,"",95
"2014-01-09 06:07:00",9.2,8.4,1.8,0.0,0,1000.2,2,7,"",95
"2014-01-09 06:08:00",9.2,8.4,1.8,0.0,0,1000.2,3,7,"",95
"2014-01-09 06:09:00",9.1,8.4,1.8,0.0,0,1000.3,3,7,"",95
"2014-01-09 06:10:00",9.2,8.4,1.8,0.0,0,1000.3,3,5,"",95
"2014-01-09 06:11:00",9.1,8.4,1.8,0.0,0,1000.2,3,8,"",95
"2014-01-09 06:12:00",9.2,8.4,1.8,0.0,0,1000.2,2,3,"",95
"2014-01-09 06:13:00",9.2,8.4,1.8,0.0,0,1000.2,1,3,"",95
"2014-01-09 06:14:00",9.2,8.4,1.8,0.0,0,1000.3,1,5,"",95
"2014-01-09 06:15:00",9.2,8.4,1.8,0.0,0,1000.2,3,7,"",95
"2014-01-09 06:16:00",9.2,8.4,1.8,0.0,0,1000.3,2,5,"",95
"2014-01-09 06:17:00",9.2,8.4,1.8,0.0,0,1000.3,2,5,"",95
"2014-01-09 06:18:00",9.2,8.4,1.8,0.0,0,1000.2,3,5,"",95
"2014-01-09 06:19:00",9.1,8.4,1.8,0.0,0,1000.2,2,3,"",95
"2014-01-09 06:20:00",9.1,8.4,1.8,0.0,0,1000.2,2,3,"",95
"2014-01-09 06:21:00",9.1,8.4,1.8,0.0,0,1000.3,2,3,"",95
"2014-01-09 06:22:00",9.1,8.4,1.8,0.0,0,1000.3,1,3,"",95
"2014-01-09 06:23:00",9.1,8.4,1.8,0.0,0,1000.4,1,3,"",95
"2014-01-09 06:24:00",9.1,8.4,1.8,0.0,0,1000.3,3,7,"",95
"2014-01-09 06:25:00",9.1,8.4,1.8,0.0,0,1000.4,3,3,"",95
"2014-01-09 06:26:00",9.1,8.3,1.8,0.0,0,1000.4,1,3,"",95
"2014-01-09 06:27:00",9.1,8.2,1.8,0.0,0,1000.4,2,7,"",94
"2014-01-09 06:28:00",9.1,8.2,1.8,0.0,0,1000.4,3,7,"",94
"2014-01-09 06:29:00",9.1,8.1,1.8,0.0,0,1000.5,2,8,"",93
"2014-01-09 06:30:00",9.1,8.1,1.8,0.0,0,1000.5,3,5,"",93
"2014-01-09 06:31:00",9.1,8.1,1.8,0.0,0,1000.5,2,12,"",93
"2014-01-09 06:32:00",9.1,8.1,1.8,0.0,0,1000.5,6,12,"",93
"2014-01-09 06:33:00",9.1,8.1,1.8,0.0,0,1000.5,2,3,"",93
"2014-01-09 06:34:00",9.1,8.1,1.8,0.0,0,1000.5,2,5,"",93
"2014-01-09 06:35:00",9.1,8.1,1.8,0.0,0,1000.5,3,7,"",93
"2014-01-09 06:36:00",9.1,8.1,1.8,0.0,0,1000.5,2,5,"",93
"2014-01-09 06:37:00",9.1,8.1,1.8,0.0,0,1000.6,2,7,"",93
"2014-01-09 06:38:00",9.1,8.1,1.8,0.0,0,1000.6,3,7,"",93
"2014-01-09 06:39:00",9.1,8.1,1.8,0.0,0,1000.6,2,1,"",93
"2014-01-09 06:40:00",9.1,8.1,1.8,0.0,0,1000.6,1,1,"",93
"2014-01-09 06:41:00",9.1,8.1,1.8,0.0,0,1000.6,1,5,"",93
"2014-01-09 06:42:00",9.1,8.1,1.8,0.0,0,1000.5,2,10,"",93
"2014-01-09 06:43:00",9.0,8.1,1.8,0.0,0,1000.5,3,12,"",94
"2014-01-09 06:44:00",9.0,8.1,1.8,0.0,0,1000.5,2,7,"",94
"2014-01-09 06:45:00",9.0,8.1,1.8,0.0,0,1000.5,5,12,"",94
"2014-01-09 06:46:00",9.0,8.1,1.8,0.0,0,1000.6,3,8,"",94
"2014-01-09 06:47:00",9.0,8.1,1.8,0.0,0,1000.7,3,8,"",94
"2014-01-09 06:48:00",9.0,8.1,1.8,0.0,0,1000.7,1,3,"",94
"2014-01-09 06:49:00",9.0,8.1,1.8,0.0,0,1000.7,2,5,"",94
"2014-01-09 06:50:00",9.0,8.0,1.8,0.0,0,1000.7,2,5,"",93